Location: TAAA CAC
(31.8680°N, 109.5150°W)
Time: 16:21:09
(UTC-07:00)

BlueWalker 3 - Visible Passes

Search period start: 12 March 2026 00:00
Search period end: 22 March 2026 00:00
Orbit: 451 x 458 km, 53.2° (Epoch: 12 March)

Date Brightness Start Highest point End Pass type
(mag) Time Alt. Az. Time Alt. Az. Time Alt. Az.
13 Mar 4.6 05:40:46 10° N 05:42:12 12° NNE 05:43:39 10° ENE visible
16 Mar 3.2 05:28:05 10° NNW 05:31:25 36° NE 05:34:43 10° ESE visible
17 Mar 3.8 04:52:24 12° NNW 04:55:09 26° NE 04:58:13 10° E visible
18 Mar 4.1 04:18:21 19° NNE 04:18:51 20° NE 04:21:34 10° E visible
18 Mar 2.5 05:53:05 10° WNW 05:56:19 32° SW 05:59:32 10° SSE visible
19 Mar 5.2 03:44:32 11° ENE 03:44:32 11° ENE 03:44:44 10° ENE visible
19 Mar 1.9 05:18:17 23° WNW 05:20:09 48° SW 05:23:35 10° SSE visible
19 Mar 3.9 20:26:47 10° SW 20:28:01 20° SW 20:28:01 20° SW visible
20 Mar 2.2 04:44:43 50° SSE 04:44:43 50° SSE 04:47:29 10° SE visible
20 Mar 1.5 19:50:33 10° SW 19:54:06 73° SE 19:54:45 54° ENE visible
21 Mar 2.0 19:14:26 10° SSW 19:17:53 48° SE 19:21:17 10° NE visible
21 Mar 4.7 20:53:17 10° WNW 20:55:03 15° NW 20:55:03 15° NW visible
